Location: McNierney
(34.1937°N, 106.9061°W)
Time: 14:13:56
(UTC+00:00)

Cosmos 2333 Rocket - Pass Details

Date: 11 December 2025
Orbit: 838 x 865 km, 70.8° (Epoch: 19 January)

Event Time Altitude Azimuth Distance (km) Brightness Sun altitude
Exits shadow 12:29:51 - 346° (NNW) 2,699 4.5 -18.8°
Reaches altitude 10° 12:30:23 10° 347° (NNW) 2,506 4.4 -18.7°
Maximum altitude 12:36:03 58° 66° (ENE) 997 2.8 -17.6°
Drops below altitude 10° 12:41:40 10° 145° (SE) 2,479 5.4 -16.5°
Sets 12:44:08 0° 150° (SSE) 3,407 6.1 -16.0°
